FALCON 9 R/B, 61911

Orbit data source: Space-Track

FALCON 9 R/B, 61911 is space debris in HEO originally from a launch on Mon, 11 Nov 2024 UTC launched from the Air Force Eastern Test Range (AFETR). Debris objects in space refer to the collection of defunct objects orbiting the Earth. Examples of debris include non-operational satellites, rocket bodies, and fragments generated from explosions, collisions, or faulty payload assembly.

Loading next visibility...
FALCON 9 R/B details
Identifier
61911, 2024-206B
Orbit
HEO
Last TLE update9 hours ago
Origin
Flag of USSpaceX (US)
ManufacturerSpaceX
MissionSpacecraft
Bus & MotorF9ST2, Unknown motor
Mass~4,000 kg wet, ~4,000 kg dry
Launch date (UTC)
2024-11-11 (1 month ago)
Launch vehicleUnknown
Launch site
Air Force Eastern Test Range (AFETR)
Object type
Payload
Rocket body
Debris
Shape & HBRUnknown
Radar Cross SectionLarge (>1 m²)

Expand to show TLE details & history

TLE from 9 hours ago
0 FALCON 9 R/B
1 61911U 24206B   24361.08011227  .00004813  00000-0  24303-2 0  9999
2 61911  27.0509 131.9174 7246000 206.3640  83.0657  2.30765322  1021
Epoch: 2024-12-26T01:55Z
Definitive object data (Epoch: 2024-12-26T01:55:21.7Z)
Latitude0.00001°
Longitude7.9508°
Altitude26,394.949 km
Speed2.801 km/s
True Right ascension08h 47m 25s
True Declination0° 00' 00"
Sunlit
Object was in daylight at TLE epoch
Visualization TLE readout
Latitude-16.57044°
Longitude-27.8051°
Altitude10,106.979 km
Speed5.646 km/s
Apparent Right ascension05h 15m 57s
Apparent Declination-32° 51' 51"
Sunlit
Object is in daylight
Visualization observer readout
Local Sidereal Time10:02:33
Azimuth233.689° WSW
Elevation-8.36°
Doppler factor1
Orbital elements
Apogee altitude35,345.198 km
Perigee altitude284.629 km
Semi-major axis24,193.05 km
Eccentricity0.7246
Inclination27.0509°
RAAN131.9174°
Arg. of periapsis206.364°
True anomaly153.65057°
Mean anomaly83.0657°
Eccentric anomaly119.27858°
Mean motion0.57678 °/min
BSTAR0.0024303
Orbital period624.16 mins
Loading maneuver chart data...
Loading historical data...
Loading historical data...
Loading historical data...
Loading historical data...
Loading historical data...
Loading historical data...
Loading historical data...
Other satellites on launch #206 in the year 2024 (2024-11-11 UTC)

FALCON 9 R/B Visibility forecast

Observer location: undefined°, undefined

Span
Click to sort rows by Start time (UTC) header in descending order
Start Az.
Max El. time (UTC)
Max El. Az.
Max El.
End time (UTC)
End Az.
535 mins2024-12-26 11:12:19.793Z230.614° WSW2024-12-26 13:12:19.793Z243.454° WSW23.436°2024-12-26 20:07:19.793Z191.507° SSW
192 mins2024-12-27 07:29:19.793Z188.259° SSW2024-12-27 10:41:19.793Z189.248° SSW38.155°2024-12-27 10:41:19.793Z189.248° SSW
|